Regional Weather Roundup
Issued by NWS

Home | Current Version | Previous Version | Text Only | Print | Product List | Glossary On
Versions: 1 2 3 4 5 6 7 8 9 10 11 12 13 14 15 16 17 18 19 20 21 22 23 24 25 26 27 28 29 30 31 32 33 34 35 36 37 38 39 40 41 42 43 44 45 46 47 48 49 50
000
ASUS42 KFFC 252010
RWRGA
WEATHER ROUNDUP FOR GEORGIA
NATIONAL WEATHER SERVICE PEACHTREE CITY GA
400 PM EDT SUN JUN 25 2017

NOTE: "FAIR" INDICATES FEW OR NO CLOUDS BELOW 12,000 FEET WITH NO
SIGNIFICANT WEATHER AND/OR OBSTRUCTIONS TO VISIBILITY.

* = USE WITH CAUTION. THE STATIONS MARKED WITH AN ASTERISK MAY NOT
REPORT WEATHER SUCH AS PRECIPITATION, FOG, OR THUNDER AND ARE NOT
QUALITY CONTROLLED BY NWS.

THE REMARK "TC" DENOTES TEMPERATURE READING IN DEGREES CELSIUS.

GAZ001>058-252100-
NORTH GEORGIA

CITY           SKY/WX    TMP DP  RH WIND       PRES   REMARKS
ATLANTA        CLOUDY    80  62  54 NW14      30.13F
ATHENS         CLOUDY    83  70  64 NW6       30.08F
CHAMBLEE       CLOUDY    81  60  48 NW10      30.13F
PEACHTREE CITY CLOUDY    79  63  57 NW10      30.13F
ROME           CLOUDY    71  65  81 SW5       30.17F
WEST ATLANTA   CLOUDY    78  61  55 NW12      30.13F
GAINESVILLE    MOSUNNY   80  61  52 N10       30.14F
CARTERSVILLE   MOSUNNY   75  64  68 VRB7      30.16F


CITY           SKY/WX    TMP DP  RH WIND       PRES   REMARKS
DALTON*        CLOUDY    72  59  64 N8        30.16F
LAWRENCEVILLE* MOSUNNY   79  63  57 NW8       30.12F
MARIETTA       MOSUNNY   80  60  51 W10       30.13F
KENNESAW*      MOSUNNY   75  63  64 NW9       30.12F
CANTON*        MOSUNNY   72  63  73 NW10      30.17F
$$

GAZ059>098-102>109-252100-
CENTRAL GEORGIA

CITY           SKY/WX    TMP DP  RH WIND       PRES   REMARKS
AUGUSTA-BUSH   MOSUNNY   93  66  40 N13       30.01F HX  96
AUGUSTA-DANIEL SUNNY     91  62  37 N12       30.04F HX  91
COLUMBUS       PTSUNNY   85  60  42 N14       30.09F
MACON          SUNNY     87  63  44 NW8       30.06F
ROBINS AFB     SUNNY     88  60  38 NW12      30.05F


CITY           SKY/WX    TMP DP  RH WIND       PRES   REMARKS
LAGRANGE*      SUNNY     82  60  47 N10       30.14F
SYLVANIA*      CLOUDY    78  78 100 SW3       30.06S
MILLEDGEVILLE* SUNNY     86  68  54 N6        30.06F
$$

GAZ099>101-110>166-252100-
SOUTH GEORGIA

CITY           SKY/WX    TMP DP  RH WIND       PRES   REMARKS
SAVANNAH       TSTM      77  74  90 NE7       30.05R
VALDOSTA       LGT RAIN  77  74  90 S5        30.06F
ALMA           CLOUDY    89  73  59 SW9       30.03F HX  97
ST SIMONS      SUNNY     93  72  50 SE12      30.02F HX 101
FT STEWART     TSTM      75  72  88 W9G18     30.03R
ALBANY         CLOUDY    82  76  81 S7        30.08R
HUNTER AFB     LGT RAIN  79  77  94 CALM      30.03R
MOODY AFB      LGT RAIN  76  73  88 SW6       30.05F
BRUNSWICK      CLOUDY    90  73  58 NW12G20   30.03F HX  98


CITY           SKY/WX    TMP DP  RH WIND       PRES   REMARKS
BAINBRIDGE*    CLOUDY    81  75  83 NW9G20    30.07S
MOULTRIE*      LGT RAIN  77  73  88 CALM      30.09R
VIDALIA*       CLOUDY    86  77  74 E14       30.03F HX  97
WAYCROSS*      CLOUDY    89  79  73 W8        30.04S HX 104
DOUGLAS*       CLOUDY    86  73  66 SW8       30.06S THUNDER HX  93
$$



USA.gov is the U.S. government's official web portal to all federal, state and local government web resources and services.